星链-4586 (STARLINK-4586 )

导读

STARLINK-4586是美国SpaceX公司星链(Starlink)卫星互联网星座中的一颗卫星,于2022年8月28日发射升空,属于星链大规模低轨星座组网计划的组成部分。该卫星运行在近地轨道,旨在为全球偏远、缺乏传统基础设施的区域提供低延迟、高速宽带互联网接入服务,支撑星链全球网络覆盖的扩展。

Basic Information
目录编号:
53636
目录名称:
STARLINK-4586
国际标识:
2022-104BA
轨道中心:
EARTH
卫星名称:
星链-4586
卫星全名:
星链-4586 (STARLINK-4586 )
卫星状态:
在轨 (已飞行1468 天)
发射日期:
2022-08-28 UTC
国别 :
美国 (US)
星等 :
--
Orbit Information
数据来源 国际轨道数据 AOE轨道数据
星历时间 2026-09-04T00:53:14+0800
10小时前
查看轨道信息
2026-09-04T00:00:00+0800
11小时前
查看轨道信息
半长轴 6843.385km 6843.369km
偏心率 0.0001254 0.0001118
轨道倾角 53.161° 53.160°
近地点辐角 72.046° 87.188°
升交点赤经 139.925° 140.098°
平近点角 288.067° 68.774°
近地点 464.389km 464.466km
远地点 466.107km 465.998km
周期 93.900分钟 93.900分钟
每日圈数 15.335445 15.335499
Detailed Information
固有亮度:
5
最大亮度:
2.5
卫星平台:
Starlink v1.5
覆盖范围:
全球
运营商:
太空探索技术公司
运营商所在国:
美国
制造商(研发单位):
太空探索技术公司
制造商所在国:
美国
使用方式:
暂无
Satellite Introduction
星链(Starlink)计划是由太空探索技术公司(SpaceX)提出的一个巨型低轨卫星互联网星座项目,计划在2019年至2024年间在太空搭建由约1.2万颗卫星组成的“星链”网络,其中1584颗将部署在地球上空550千米处的近地轨道,并从2020年开始工作。该卫星仍在工作。
2D Orbit Map
3D Orbit Map
Orbit Altitude Analysis Chart
Orbit Inclination Analysis Chart
Orbit Comprehensive Analysis Chart
View Comprehensive Chart
Conjunction Data List
Event ID Objects TCA Miss Dist (km) Collision Risk Probability Collision Risk Index (CRI) Action
CDM_260903-133605-363606-237323
2026-09-03T
13:36:32+0000
0.599 km
远距离
1.111888E-4 高风险 0.76
CDM_260903-133505-363606-774322
2026-09-03T
13:35:15+0000
2.338 km
极远距离
1.973617E-6 低风险 0.41
CDM_260905-002605-363606-403321
2026-09-05T
00:26:00+0000
2.324 km
极远距离
1.708247E-6 低风险 0.4
CDM_260905-052705-363606-567521
2026-09-05T
05:27:29+0000
2.569 km
极远距离
1.653158E-6 低风险 0.39
CDM_260904-042905-288005-363621
2026-09-04T
04:29:14+0000
2.494 km
极远距离
1.523368E-6 低风险 0.39
CDM_260905-022005-363605-876521
2026-09-05T
02:20:26+0000
2.456 km
极远距离
1.514092E-6 低风险 0.39
CDM_260903-072805-363605-855223
2026-09-03T
07:28:30+0000
2.551 km
极远距离
1.511593E-6 低风险 0.39
CDM_260904-165405-363606-694321
2026-09-04T
16:54:39+0000
2.431 km
极远距离
1.455949E-6 低风险 0.38
CDM_260904-192805-363606-553421
2026-09-04T
19:28:27+0000
2.898 km
极远距离
1.396172E-6 低风险 0.38
CDM_260830-175305-363606-931222
2026-08-30T
17:53:30+0000
2.876 km
极远距离
1.281328E-6 低风险 0.37